Home > Weather > Newtown > Past weeks

Flag for United Kingdom Weather for the Past 2 Weeks in Newtown, Wales, United Kingdom

Now
43 °F

Quite cool.


Feels Like: 40 °F
Forecast: 52 / 66 °F
Wind: 5 mph from North

Location: Lake Vyrnwy

Current Time: May 6, 2016 at 7:08:31 AM

Latest Report: May 6, 2016 at 6:00 AM


Visibility: 11 mi

Pressure: 29.94 "Hg

Humidity: 88%

Dew Point: 40 °F

Location of NewtownLocation

Historic Weather in Newtown — Graph

°F

Newtown Temperature Yesterday

Maximum temperature yesterday: 62 °F (at 6:00 PM)
Minimum temperature yesterday: 39 °F (at 5:00 AM)
Average temperature yesterday: 52 °F

High & Low Weather Summary for the Past Weeks

 TemperatureHumidityPressure
High62 °F (May 5, 6:00 PM)100% (May 1, 6:00 PM)30.34 "Hg (May 1, 6:00 PM)
Low31 °F (Apr 28, 5:00 AM)46% (May 5, 6:00 PM)29.70 "Hg (Apr 29, 6:00 AM)
Average44 °F76%30.10 "Hg
* Reported Apr 21 6:00 AM — May 6 6:00 AM, Newtown, Weather by CustomWeather, © 2016

Note: Actual official high and low records may vary slightly from our data, if they occured in-between our weather recording intervals... More about our weather records

Advertising

Newtown Weather History for the Previous 24 Hours

Scroll right to see more
 ConditionsComfort  
Time TempWeatherWind HumidityBarometerVisibility
6:00 AM
Fri, May 6
43 °FQuite cool.5 mph88%29.94 "Hg11 mi
5:00 AM43 °FQuite cool.3 mph90%29.96 "Hg14 mi
2:00 AM46 °FCool.2 mph86%30.00 "Hg12 mi
1:00 AM46 °FCool.2 mph88%30.01 "Hg12 mi
11:00 PM
Thu, May 5
50 °FCool.1 mph78%30.01 "Hg11 mi
10:00 PM52 °FCool.5 mph73%30.01 "Hg13 mi
9:00 PM54 °FCool.8 mph70%30.00 "Hg14 mi
8:00 PM57 °FCool.7 mph65%29.99 "Hg7 mi
7:00 PM61 °FRefreshingly cool.2 mph53%29.98 "Hg10 mi
6:00 PM62 °FRefreshingly cool.8 mph46%29.98 "Hg19 mi
5:00 PM62 °FRefreshingly cool.10 mph48%29.99 "Hg13 mi
4:00 PM62 °FRefreshingly cool.7 mph50%30.00 "Hg14 mi
3:00 PM62 °FRefreshingly cool.10 mph50%30.01 "Hg19 mi
2:00 PM60 °FRefreshingly cool.10 mph53%30.03 "Hg19 mi
1:00 PM59 °FRefreshingly cool.8 mph55%30.05 "Hg10 mi
12:00 PM57 °FRefreshingly cool.8 mph60%30.07 "Hg31 mi
11:00 AM54 °FCool.6 mph58%30.09 "Hg14 mi
10:00 AM53 °FCool.3 mph66%30.10 "Hg16 mi
9:00 AM48 °FCool.5 mph73%30.12 "Hg22 mi
8:00 AM46 °FCool.2 mph76%30.12 "Hg14 mi
7:00 AM43 °FQuite cool.2 mph91%30.13 "Hg28 mi
Weather by CustomWeather, © 2016

See weather overviewHow to use our weather pages